M I D A S
Marine Information and Data Acquisition System
Tripno 762 of the Zeeleeuw from 2004-08-16 06:43:36 to 2004-08-16 14:54:04
Back to CruiseResearch ActivitiesStationsMapUnderway DataData graphs

EquipmentUnitsComments
TimeDGPSUTC
LatitudeDGPSDM.mWGS84
LongitudeDGPSDM.mWGS84
SpeedMeteo Stationm/sRelative wind speed
DirectionMeteo StationdegRelative wind direction
TemperatureMeteo Stationdeg CelciusAir temperature
PressureMeteo StationPaAtmospheric pressure
HumidityMeteo Station%Relative humidity
Missing or incorrect values are displayed as -999
Metereological data collected by the RV Zeeleeuw from 2004-08-16 06:43:36 to 2004-08-16 14:54:04
Time Latitude Longitude Speed Direction Temperature Pressure Humidity
2004-08-16 06:44 51°13.595 2°56.114 0.5 139 17.2 100750 96
2004-08-16 06:45 51°13.595 2°56.115 1.5 144 17.3 100750 96
2004-08-16 06:46 51°13.597 2°56.108 2.1 164 17.3 100750 96
2004-08-16 06:47 51°13.625 2°56.023 2.8 175 17.3 100750 97
2004-08-16 06:48 51°13.638 2°55.977 2.3 163 17.3 100750 96
2004-08-16 06:49 51°13.653 2°55.939 3.3 168 17.3 100750 96
2004-08-16 06:50 51°13.689 2°55.841 3.9 165 17.3 100750 96
2004-08-16 06:51 51°13.71 2°55.747 2.1 193 17.4 100750 96
2004-08-16 06:52 51°13.719 2°55.726 2.3 228 17.4 100750 96
2004-08-16 06:54 51°13.734 2°55.698 2.7 342 17.4 100750 97
2004-08-16 06:55 51°13.848 2°55.61 4.2 351 17.4 100740 97
2004-08-16 06:56 51°13.977 2°55.526 4 343 17.5 100740 97
2004-08-16 06:57 51°14.112 2°55.43 7.8 347 17.5 100740 97
2004-08-16 06:58 51°14.261 2°55.263 9.3 348 17.5 100730 97
2004-08-16 06:59 51°14.387 2°55.017 11 344 17.5 100720 97
2004-08-16 07:00 51°14.562 2°54.812 10.8 336 17.6 100720 97
2004-08-16 07:01 51°14.772 2°54.691 9.4 326 17.6 100720 97
2004-08-16 07:02 51°15.02 2°54.6 9 325 17.7 100730 97
2004-08-16 07:03 51°15.205 2°54.473 9.7 330 17.7 100720 97
2004-08-16 07:04 51°15.434 2°54.369 8.9 328 17.7 100720 97
2004-08-16 07:05 51°15.667 2°54.267 9.2 324 17.7 100730 97
2004-08-16 07:06 51°15.875 2°54.199 7.9 320 17.8 100720 97
2004-08-16 07:07 51°16.046 2°54.126 7.3 304 17.8 100730 97
2004-08-16 07:08 51°16.156 2°54.169 3.3 256 17.9 100740 97
2004-08-16 07:09 51°16.221 2°54.239 3.3 249 18 100740 96
2004-08-16 07:10 51°16.26 2°54.27 3.8 242 18 100740 96
2004-08-16 07:11 51°16.27 2°54.256 5.2 269 18 100740 96
2004-08-16 07:12 51°16.275 2°54.233 5.6 280 18.1 100740 96
2004-08-16 07:14 51°16.281 2°54.207 5.6 284 18.1 100730 96
2004-08-16 07:15 51°16.291 2°54.183 5.5 284 18.1 100740 96
2004-08-16 07:16 51°16.363 2°54.09 10.3 330 18.2 100730 96
2004-08-16 07:17 51°16.5 2°53.847 11.5 344 18.2 100710 95
2004-08-16 07:18 51°16.637 2°53.562 12.3 338 18.2 100700 95
2004-08-16 07:19 51°16.782 2°53.294 12.9 340 18.3 100700 95
2004-08-16 07:20 51°16.928 2°53.04 12.1 346 18.3 100700 95
2004-08-16 07:21 51°17.098 2°52.746 12.8 346 18.3 100700 94
2004-08-16 07:22 51°17.254 2°52.472 12.6 339 18.3 100690 94
2004-08-16 07:23 51°17.423 2°52.197 11.7 333 18.2 100690 93
2004-08-16 07:24 51°17.584 2°51.986 11.8 342 18.2 100690 93
2004-08-16 07:25 51°17.762 2°51.744 11.4 341 18.2 100690 93
2004-08-16 07:26 51°17.939 2°51.518 11 333 18.2 100690 93
2004-08-16 07:27 51°18.109 2°51.297 10.9 336 18.2 100690 92
2004-08-16 07:28 51°18.289 2°51.102 11.2 333 18.2 100690 92
2004-08-16 07:29 51°18.435 2°50.995 6.3 285 18.3 100700 92
2004-08-16 07:30 51°18.49 2°51.048 5.3 233 18.2 100720 91
2004-08-16 07:31 51°18.483 2°51.048 5.8 212 18.2 100720 91
2004-08-16 07:32 51°18.473 2°51.052 5.1 209 18.2 100720 91
2004-08-16 07:33 51°18.46 2°51.057 5 215 18.2 100720 90
2004-08-16 07:34 51°18.45 2°51.061 5.5 225 18.3 100720 90
2004-08-16 07:35 51°18.441 2°51.063 5.6 228 18.2 100710 90
2004-08-16 07:36 51°18.444 2°51.077 5.4 238 18.2 100710 90
2004-08-16 07:37 51°18.557 2°51.2 4.8 299 18.3 100710 90
2004-08-16 07:38 51°18.669 2°51.423 3.8 299 18.3 100710 89
2004-08-16 07:39 51°18.744 2°51.731 2.5 303 18.3 100710 89
2004-08-16 07:40 51°18.817 2°52.04 2.6 286 18.3 100710 89
2004-08-16 07:41 51°18.888 2°52.343 1.8 291 18.3 100720 88
2004-08-16 07:42 51°18.959 2°52.64 2.4 300 18.4 100720 88
2004-08-16 07:43 51°19.031 2°52.941 2.1 293 18.5 100720 87
2004-08-16 07:44 51°19.108 2°53.245 3 273 18.6 100720 87
2004-08-16 07:45 51°19.188 2°53.566 2.5 284 18.6 100720 86
2004-08-16 07:46 51°19.269 2°53.887 3.4 294 18.7 100720 86
2004-08-16 07:48 51°19.338 2°54.212 2.2 292 18.6 100730 85
2004-08-16 07:49 51°19.406 2°54.522 3.1 276 18.7 100720 84
2004-08-16 07:50 51°19.483 2°54.848 2 258 18.6 100720 84
2004-08-16 07:51 51°19.551 2°55.144 2.9 272 18.6 100730 84
2004-08-16 07:52 51°19.617 2°55.44 4.1 280 18.6 100720 84
2004-08-16 07:53 51°19.679 2°55.74 3.8 281 18.6 100720 84
2004-08-16 07:54 51°19.749 2°56.08 4.8 272 18.5 100720 83
2004-08-16 07:55 51°19.806 2°56.383 2.9 273 18.5 100720 83
2004-08-16 07:56 51°19.864 2°56.686 1.6 253 18.5 100720 83
2004-08-16 07:57 51°19.929 2°57.008 1.7 250 18.5 100720 83
2004-08-16 07:58 51°19.991 2°57.306 3.9 280 18.6 100720 83
2004-08-16 07:59 51°20.052 2°57.605 3 281 18.6 100720 84
2004-08-16 08:00 51°20.112 2°57.909 3.3 275 18.5 100720 83
2004-08-16 08:01 51°20.17 2°58.209 2.4 274 18.5 100720 83
2004-08-16 08:02 51°20.225 2°58.504 1 255 18.5 100720 83
2004-08-16 08:03 51°20.285 2°58.825 2.9 296 18.6 100730 83
2004-08-16 08:04 51°20.344 2°59.13 1.7 252 18.6 100720 83
2004-08-16 08:05 51°20.409 2°59.464 1.1 296 18.6 100720 83
2004-08-16 08:06 51°20.467 2°59.766 2.6 285 18.7 100730 84
2004-08-16 08:07 51°20.524 3°0.063 2.1 277 18.7 100720 84
2004-08-16 08:08 51°20.584 3°0.372 3.4 288 18.7 100730 84
2004-08-16 08:09 51°20.639 3°0.676 2.7 295 18.6 100720 83
2004-08-16 08:10 51°20.697 3°0.988 3.9 293 18.7 100730 83
2004-08-16 08:11 51°20.759 3°1.32 3.1 273 18.6 100730 83
2004-08-16 08:12 51°20.815 3°1.623 3 276 18.6 100720 83
2004-08-16 08:13 51°20.87 3°1.927 3.4 273 18.6 100730 83
2004-08-16 08:14 51°20.934 3°2.259 2.7 265 18.6 100730 83
2004-08-16 08:15 51°20.997 3°2.591 1.6 261 18.6 100730 83
2004-08-16 08:16 51°21.058 3°2.894 3.9 267 18.6 100720 83
2004-08-16 08:17 51°21.127 3°3.194 4.8 266 18.7 100720 84
2004-08-16 08:18 51°21.193 3°3.494 4.4 274 18.7 100720 83
2004-08-16 08:19 51°21.252 3°3.798 4.1 291 18.7 100720 83
2004-08-16 08:20 51°21.309 3°4.104 4.9 286 18.8 100720 83
2004-08-16 08:21 51°21.37 3°4.408 4.6 284 18.8 100720 83
2004-08-16 08:22 51°21.432 3°4.714 3.5 275 18.8 100720 83
2004-08-16 08:23 51°21.489 3°5.026 2.7 280 18.8 100720 83
2004-08-16 08:24 51°21.543 3°5.333 3 274 18.8 100720 83
2004-08-16 08:25 51°21.594 3°5.653 2.6 291 18.9 100720 83
2004-08-16 08:26 51°21.642 3°5.949 2.8 281 18.9 100720 82
2004-08-16 08:28 51°21.704 3°6.303 3.8 298 18.9 100720 82
2004-08-16 08:29 51°21.758 3°6.618 4.6 290 19 100720 83
2004-08-16 08:30 51°21.814 3°6.933 3.6 300 18.9 100720 82
2004-08-16 08:31 51°21.862 3°7.251 3 279 19 100720 82
2004-08-16 08:32 51°21.915 3°7.566 2.4 282 19 100720 81
2004-08-16 08:32 51°21.966 3°7.877 3.5 272 19 100720 81
2004-08-16 08:34 51°22.013 3°8.202 2.9 271 19 100720 81
2004-08-16 08:35 51°22.068 3°8.596 2.6 279 18.9 100720 81
2004-08-16 08:36 51°22.075 3°8.919 1.1 267 19 100720 82
2004-08-16 08:37 51°22.059 3°9.25 0.4 292 19 100720 82
2004-08-16 08:38 51°22.048 3°9.586 1.3 268 19 100720 82
2004-08-16 08:39 51°22.049 3°9.919 2.4 270 19.1 100720 82
2004-08-16 08:40 51°22.054 3°10.248 2.2 269 19 100720 81
2004-08-16 08:41 51°22.068 3°10.625 1.5 272 19 100720 81
2004-08-16 08:42 51°22.08 3°10.968 0.9 245 18.9 100730 81
2004-08-16 08:43 51°22.117 3°11.341 3.2 278 18.9 100730 81
2004-08-16 08:44 51°22.192 3°11.662 4.5 276 19 100730 82
2004-08-16 08:45 51°22.274 3°12.011 2.9 268 18.9 100730 82
2004-08-16 08:46 51°22.354 3°12.36 5 279 18.9 100740 82
2004-08-16 08:47 51°22.442 3°12.674 3.8 267 18.9 100740 82
2004-08-16 08:48 51°22.531 3°12.99 2.4 247 18.9 100740 82
2004-08-16 08:49 51°22.586 3°13.178 4.6 248 18.8 100750 82
2004-08-16 08:50 51°22.62 3°13.23 7.4 216 18.8 100750 82
2004-08-16 08:51 51°22.62 3°13.232 6.2 201 18.8 100750 82
2004-08-16 08:52 51°22.62 3°13.241 6.7 198 18.9 100750 82
2004-08-16 08:53 51°22.621 3°13.253 7.4 214 19 100750 81
2004-08-16 08:54 51°22.627 3°13.266 7.8 236 18.9 100740 81
2004-08-16 08:55 51°22.68 3°13.298 8.8 285 18.8 100740 80
2004-08-16 08:56 51°22.842 3°13.424 7.3 267 18.9 100730 81
2004-08-16 08:57 51°22.981 3°13.655 6.5 265 18.9 100750 82
2004-08-16 08:58 51°23.087 3°13.946 3.2 258 18.9 100750 81
2004-08-16 08:59 51°23.185 3°14.251 2.4 257 18.9 100750 81
2004-08-16 09:00 51°23.28 3°14.547 2.9 247 18.9 100750 81
2004-08-16 09:01 51°23.391 3°14.841 6.7 283 18.9 100740 81
2004-08-16 09:02 51°23.546 3°15.05 6.3 289 18.9 100730 81
2004-08-16 09:03 51°23.718 3°15.267 7.1 295 19 100730 81
2004-08-16 09:04 51°23.892 3°15.494 6.2 297 19 100730 80
2004-08-16 09:05 51°24.058 3°15.713 6.4 292 19 100730 79
2004-08-16 09:06 51°24.228 3°15.919 7.3 290 19 100730 79
2004-08-16 09:08 51°24.414 3°16.138 6.7 289 19 100730 78
2004-08-16 09:09 51°24.59 3°16.351 6.7 299 19 100730 79
2004-08-16 09:10 51°24.768 3°16.571 6.6 300 19 100720 79
2004-08-16 09:11 51°24.949 3°16.786 6.5 300 19.1 100720 80
2004-08-16 09:12 51°25.122 3°16.999 6.1 301 19 100720 79
2004-08-16 09:13 51°25.296 3°17.204 6.2 302 19 100720 80
2004-08-16 09:14 51°25.476 3°17.395 6.9 300 19 100720 79
2004-08-16 09:15 51°25.66 3°17.573 6.5 304 19 100720 79
2004-08-16 09:16 51°25.788 3°17.702 6.9 270 19 100730 78
2004-08-16 09:17 51°25.882 3°17.787 8.1 267 19 100730 78
2004-08-16 09:18 51°25.919 3°17.821 7.3 235 19 100730 77
2004-08-16 09:19 51°25.915 3°17.847 7.3 223 19 100730 78
2004-08-16 09:20 51°25.91 3°17.88 6.7 211 19 100740 78
2004-08-16 09:21 51°25.907 3°17.917 7.1 222 19 100740 77
2004-08-16 09:22 51°25.906 3°17.957 6.7 231 19 100740 77
2004-08-16 09:23 51°25.907 3°17.993 5 243 19.1 100740 77
2004-08-16 09:24 51°25.978 3°17.994 9.8 322 19.1 100740 77
2004-08-16 09:25 51°25.989 3°17.791 13.6 359 19.2 100720 77
2004-08-16 09:26 51°25.947 3°17.473 14.8 356 19.2 100730 75
2004-08-16 09:27 51°25.909 3°17.143 14 2 19.2 100730 75
2004-08-16 09:28 51°25.866 3°16.808 15.2 350 19.3 100740 75
2004-08-16 09:29 51°25.823 3°16.474 14.4 358 19.3 100740 73
2004-08-16 09:30 51°25.796 3°16.137 15.3 2 19.3 100730 73
2004-08-16 09:31 51°25.747 3°15.803 13.6 354 19.4 100730 74
2004-08-16 09:32 51°25.711 3°15.465 14.5 357 19.4 100740 73
2004-08-16 09:33 51°25.66 3°15.13 14.6 351 19.4 100740 73
2004-08-16 09:34 51°25.622 3°14.792 13.8 1 19.4 100740 74
2004-08-16 09:35 51°25.586 3°14.452 14.1 355 19.4 100730 74
2004-08-16 09:36 51°25.543 3°14.111 14.1 351 19.4 100720 72
2004-08-16 09:37 51°25.517 3°13.764 13.8 350 19.5 100730 73
2004-08-16 09:38 51°25.494 3°13.418 14.2 351 19.5 100720 73
2004-08-16 09:39 51°25.47 3°13.073 14.3 351 19.5 100720 74
2004-08-16 09:40 51°25.445 3°12.728 14.7 350 19.5 100720 73
2004-08-16 09:41 51°25.417 3°12.35 14.5 346 19.6 100720 74
2004-08-16 09:42 51°25.393 3°12.005 14.8 346 19.6 100730 73
2004-08-16 09:43 51°25.415 3°11.673 14.1 337 19.6 100720 73
2004-08-16 09:44 51°25.455 3°11.336 12.8 331 19.6 100710 72
2004-08-16 09:45 51°25.596 3°11.079 12.3 320 19.6 100720 72
2004-08-16 09:46 51°25.73 3°10.854 11.1 322 19.7 100730 71
2004-08-16 09:47 51°25.897 3°10.626 12.1 320 19.7 100730 72
2004-08-16 09:48 51°25.984 3°10.34 11.9 328 19.7 100720 70
2004-08-16 09:49 51°26.045 3°10.023 14.1 335 19.7 100720 70
2004-08-16 09:50 51°26.108 3°9.702 13.4 341 19.7 100730 72
2004-08-16 09:51 51°26.165 3°9.367 13.8 340 19.7 100720 72
2004-08-16 09:52 51°26.222 3°9.037 15.5 340 19.7 100730 73
2004-08-16 09:53 51°26.275 3°8.724 13 336 19.7 100720 73
2004-08-16 09:54 51°26.328 3°8.582 10.7 303 19.7 100730 74
2004-08-16 09:55 51°26.41 3°8.474 10.5 309 19.7 100740 74
2004-08-16 09:56 51°26.458 3°8.371 10 312 19.7 100740 76
2004-08-16 09:57 51°26.457 3°8.353 9.9 275 19.6 100750 76
2004-08-16 09:58 51°26.454 3°8.354 9.2 273 19.6 100750 77
2004-08-16 09:59 51°26.449 3°8.356 11.3 272 19.5 100750 78
2004-08-16 10:00 51°26.442 3°8.357 9.7 275 19.5 100750 79
2004-08-16 10:01 51°26.433 3°8.36 9 284 19.3 100750 77
2004-08-16 10:02 51°26.423 3°8.363 8 290 19.3 100740 78
2004-08-16 10:03 51°26.412 3°8.366 7.8 289 19.5 100740 79
2004-08-16 10:04 51°26.421 3°8.325 10.5 332 19.5 100740 80
2004-08-16 10:05 51°26.432 3°8.041 13.9 351 19.5 100720 80
2004-08-16 10:06 51°26.454 3°7.702 13.8 340 19.4 100720 79
2004-08-16 10:07 51°26.546 3°7.403 13.8 333 19.3 100710 78
2004-08-16 10:08 51°26.657 3°7.111 13.7 331 19.3 100700 77
2004-08-16 10:09 51°26.768 3°6.814 14.9 338 19.3 100710 78
2004-08-16 10:10 51°26.876 3°6.526 13.7 327 19.2 100700 79
2004-08-16 10:11 51°26.985 3°6.233 13.6 332 19.2 100700 79
2004-08-16 10:12 51°27.096 3°5.934 14.1 329 19.2 100710 80
2004-08-16 10:13 51°27.217 3°5.651 13.3 329 19.1 100710 79
2004-08-16 10:14 51°27.37 3°5.338 12.7 333 19 100700 78
2004-08-16 10:16 51°27.521 3°5.033 14.2 330 19.1 100700 79
2004-08-16 10:17 51°27.655 3°4.758 12.6 329 19 100700 79
2004-08-16 10:18 51°27.801 3°4.46 14.5 331 19 100710 80
2004-08-16 10:19 51°27.969 3°4.114 15.5 328 18.9 100700 78
2004-08-16 10:20 51°28.115 3°3.812 13.5 324 19 100690 77
2004-08-16 10:21 51°28.236 3°3.555 11.6 317 19 100710 77
2004-08-16 10:22 51°28.267 3°3.452 9.3 303 19 100720 78
2004-08-16 10:23 51°28.259 3°3.444 8.4 276 19.1 100730 79
2004-08-16 10:24 51°28.255 3°3.44 8.4 270 19.1 100740 79
2004-08-16 10:25 51°28.253 3°3.438 8 262 19.1 100750 79
2004-08-16 10:26 51°28.252 3°3.437 9.2 265 19 100750 79
2004-08-16 10:27 51°28.251 3°3.433 10 276 19 100750 78
2004-08-16 10:28 51°28.249 3°3.43 9.8 272 19 100750 77
2004-08-16 10:29 51°28.247 3°3.426 8.7 275 19 100750 77
2004-08-16 10:30 51°28.245 3°3.421 9.5 275 19.1 100750 78
2004-08-16 10:32 51°28.242 3°3.417 8.4 280 19.1 100740 79
2004-08-16 10:33 51°28.242 3°3.414 9.2 278 19.1 100740 78
2004-08-16 10:34 51°28.283 3°3.346 13.1 323 19.1 100740 78
2004-08-16 10:35 51°28.328 3°3.011 16.2 355 19.1 100720 76
2004-08-16 10:36 51°28.278 3°2.66 15.8 359 19.1 100730 76
2004-08-16 10:37 51°28.218 3°2.271 14.7 358 19 100730 77
2004-08-16 10:38 51°28.163 3°1.892 15.7 357 19 100730 78
2004-08-16 10:39 51°28.112 3°1.529 16.8 359 19 100730 77
2004-08-16 10:40 51°28.054 3°1.12 15.3 358 18.9 100730 77
2004-08-16 10:41 51°27.996 3°0.704 16.5 357 18.9 100730 78
2004-08-16 10:42 51°27.945 3°0.346 14.9 1 18.9 100740 79
2004-08-16 10:43 51°27.896 2°59.99 16.2 355 18.9 100730 78
2004-08-16 10:44 51°27.845 2°59.622 16.1 357 18.9 100730 77
2004-08-16 10:45 51°27.797 2°59.279 15.5 353 18.9 100730 77
2004-08-16 10:46 51°27.744 2°58.914 15.1 5 19 100730 79
2004-08-16 10:48 51°27.659 2°58.494 15.9 6 18.9 100720 78
2004-08-16 10:49 51°27.588 2°58.141 15.9 4 18.9 100730 79
2004-08-16 10:50 51°27.509 2°57.739 14.1 1 18.9 100720 79
2004-08-16 10:51 51°27.439 2°57.378 16.5 6 18.9 100730 79
2004-08-16 10:52 51°27.371 2°57.028 17.2 5 18.8 100720 79
2004-08-16 10:53 51°27.301 2°56.663 16.1 6 18.8 100720 78
2004-08-16 10:54 51°27.238 2°56.318 16.7 4 18.8 100710 79
2004-08-16 10:55 51°27.166 2°55.927 15.7 359 18.7 100710 79
2004-08-16 10:56 51°27.093 2°55.524 16.2 2 18.7 100730 80
2004-08-16 10:57 51°27.026 2°55.151 16.5 4 18.8 100720 80
2004-08-16 10:58 51°26.958 2°54.767 14.6 6 18.7 100720 80
2004-08-16 10:59 51°26.897 2°54.42 15.7 9 18.7 100710 80
2004-08-16 11:00 51°26.833 2°54.044 16.4 4 18.7 100720 81
2004-08-16 11:01 51°26.776 2°53.698 15.4 1 18.6 100710 80
2004-08-16 11:02 51°26.709 2°53.297 15.2 3 18.6 100710 81
2004-08-16 11:04 51°26.635 2°52.857 15.6 7 18.6 100720 81
2004-08-16 11:05 51°26.573 2°52.492 15.8 1 18.6 100710 81
2004-08-16 11:06 51°26.518 2°52.113 15.2 2 18.6 100720 82
2004-08-16 11:07 51°26.466 2°51.758 15.5 358 18.6 100710 82
2004-08-16 11:08 51°26.405 2°51.364 14.2 358 18.7 100710 81
2004-08-16 11:09 51°26.348 2°50.989 14.2 4 18.7 100710 81
2004-08-16 11:11 51°26.292 2°50.608 14.4 8 18.7 100720 81
2004-08-16 11:12 51°26.241 2°50.262 15.6 4 18.6 100710 81
2004-08-16 11:13 51°26.189 2°49.906 15.1   18.6 100710 81
2004-08-16 11:14 51°26.132 2°49.517 14 3 18.7 100710 82
2004-08-16 11:15 51°26.077 2°49.136 15.5 1 18.7 100720 81
2004-08-16 11:16 51°26.033 2°48.831 12.5 359 18.6 100700 81
2004-08-16 11:17 51°25.999 2°48.62 10.3 1 18.6 100720 80
2004-08-16 11:18 51°25.991 2°48.525 7.8 344 18.6 100730 80
2004-08-16 11:19 51°25.991 2°48.562 8.3 314 18.7 100720 81
2004-08-16 11:20 51°25.99 2°48.597 7.1 296 18.7 100710 81
2004-08-16 11:21 51°25.991 2°48.627 7.9 281 18.7 100710 81
2004-08-16 11:22 51°25.996 2°48.657 8.8 268 18.7 100710 81
2004-08-16 11:23 51°26.004 2°48.687 8.4 267 18.7 100720 82
2004-08-16 11:24 51°26.013 2°48.715 7.8 270 18.7 100710 82
2004-08-16 11:26 51°26.065 2°48.697 10.9 327 18.7 100710 83
2004-08-16 11:27 51°26.105 2°48.423 15.4 2 18.8 100700 82
2004-08-16 11:28 51°26.042 2°48.116 14.7 19 18.7 100680 81
2004-08-16 11:29 51°25.919 2°47.817 15.6 19 18.7 100680 81
2004-08-16 11:30 51°25.805 2°47.537 14.7 19 18.7 100680 81
2004-08-16 11:31 51°25.695 2°47.244 14 18 18.8 100680 82
2004-08-16 11:32 51°25.554 2°46.873 14.9 15 18.6 100690 80
2004-08-16 11:33 51°25.439 2°46.556 15.3 10 18.6 100690 80
2004-08-16 11:34 51°25.319 2°46.233 14.5 11 18.6 100690 81
2004-08-16 11:35 51°25.215 2°45.945 14 10 18.6 100690 80
2004-08-16 11:36 51°25.096 2°45.626 14.9 8 18.6 100690 81
2004-08-16 11:38 51°24.981 2°45.316 14.8 9 18.6 100690 81
2004-08-16 11:39 51°24.867 2°45.006 15.3 12 18.6 100680 81
2004-08-16 11:40 51°24.765 2°44.725 13.4 10 18.6 100680 81
2004-08-16 11:41 51°24.66 2°44.436 15.4 8 18.6 100670 81
2004-08-16 11:42 51°24.557 2°44.159 14.9 10 18.6 100670 80
2004-08-16 11:43 51°24.448 2°43.858 14.6 5 18.7 100680 81
2004-08-16 11:44 51°24.346 2°43.581 15.5 14 18.7 100680 82
2004-08-16 11:45 51°24.246 2°43.31 15.3 13 18.6 100670 81
2004-08-16 11:46 51°24.143 2°43.032 13.9 7 18.7 100670 81
2004-08-16 11:47 51°24.035 2°42.744 14.7 8 18.6 100680 81
2004-08-16 11:48 51°23.921 2°42.442 14.7 11 18.7 100680 82
2004-08-16 11:49 51°23.823 2°42.104 13.9 4 18.7 100670 82
2004-08-16 11:50 51°23.733 2°41.794 16 10 18.7 100680 82
2004-08-16 11:51 51°23.643 2°41.489 15.2 7 18.6 100670 82
2004-08-16 11:52 51°23.563 2°41.211 15.9 10 18.6 100670 81
2004-08-16 11:53 51°23.464 2°40.871 15.2 13 18.6 100670 81
2004-08-16 11:54 51°23.382 2°40.56 15.7 11 18.6 100680 82
2004-08-16 11:55 51°23.312 2°40.272 15.6 5 18.6 100670 81
2004-08-16 11:56 51°23.223 2°39.899 14.9 7 18.6 100670 82
2004-08-16 11:57 51°23.156 2°39.604 15.6 7 18.6 100670 82
2004-08-16 11:59 51°23.074 2°39.25 16.1 5 18.6 100690 81
2004-08-16 12:00 51°23.005 2°38.956 15.6 10 18.6 100700 81
2004-08-16 12:01 51°22.935 2°38.656 14.4 4 18.6 100700 80
2004-08-16 12:02 51°22.865 2°38.362 15   18.6 100700 81
2004-08-16 12:03 51°22.792 2°38.063 15.4 10 18.6 100690 81
2004-08-16 12:04 51°22.722 2°37.765 15.4 5 18.6 100700 82
2004-08-16 12:05 51°22.65 2°37.468 15.5 11 18.6 100700 82
2004-08-16 12:06 51°22.561 2°37.19 13.6 4 18.6 100700 81
2004-08-16 12:07 51°22.469 2°36.908 15 6 18.6 100700 81
2004-08-16 12:08 51°22.382 2°36.629 14.3 12 18.7 100700 82
2004-08-16 12:09 51°22.295 2°36.351 15.3 13 18.7 100700 83
2004-08-16 12:10 51°22.197 2°36.076 15.8 6 18.7 100680 83
2004-08-16 12:11 51°22.087 2°35.782 16.9 10 18.7 100670 83
2004-08-16 12:12 51°21.986 2°35.512 14.6 10 18.5 100690 82
2004-08-16 12:13 51°21.883 2°35.231 17.5 9 18.6 100700 82
2004-08-16 12:14 51°21.784 2°34.959 16.6 10 18.5 100690 82
2004-08-16 12:15 51°21.684 2°34.677 15.8 9 18.5 100690 82
2004-08-16 12:16 51°21.583 2°34.408 15.1 2 18.6 100670 82
2004-08-16 12:17 51°21.484 2°34.128 15.8 6 18.6 100670 82
2004-08-16 12:18 51°21.39 2°33.851 15.1 2 18.6 100660 82
2004-08-16 12:19 51°21.294 2°33.574 14.6 7 18.6 100670 82
2004-08-16 12:20 51°21.205 2°33.311 15.8 5 18.6 100670 82
2004-08-16 12:21 51°21.112 2°33.031 17.3 7 18.6 100670 82
2004-08-16 12:22 51°21.02 2°32.761 15.7 8 18.6 100680 82
2004-08-16 12:23 51°20.928 2°32.489 15.8 6 18.6 100670 82
2004-08-16 12:24 51°20.833 2°32.203 15.5 9 18.5 100670 81
2004-08-16 12:25 51°20.739 2°31.933 15.6 6 18.5 100670 82
2004-08-16 12:26 51°20.646 2°31.663 16.6 9 18.5 100670 82
2004-08-16 12:27 51°20.551 2°31.397 15 8 18.5 100670 82
2004-08-16 12:28 51°20.457 2°31.138 16.3 10 18.5 100670 82
2004-08-16 12:29 51°20.354 2°30.854 14.3 5 18.5 100670 83
2004-08-16 12:30 51°20.26 2°30.595 15.2 6 18.5 100660 83
2004-08-16 12:31 51°20.15 2°30.291 17.4 6 18.5 100660 83
2004-08-16 12:32 51°20.078 2°30.083 15.2 5 18.5 100680 83
2004-08-16 12:33 51°20.054 2°29.984 11.7 340 18.4 100680 82
2004-08-16 12:34 51°20.078 2°30 10.4 291 18.5 100690 82
2004-08-16 12:35 51°20.131 2°30.022 9.9 284 18.5 100700 82
2004-08-16 12:36 51°20.17 2°30.057 8.9 299 18.5 100700 82
2004-08-16 12:37 51°20.201 2°30.095 8.8 312 18.5 100700 82
2004-08-16 12:38 51°20.227 2°30.138 8.5 321 18.6 100690 83
2004-08-16 12:39 51°20.249 2°30.164 7.8 352 18.6 100700 83
2004-08-16 12:40 51°20.26 2°30.183 8.8 357 18.7 100690 83
2004-08-16 12:41 51°20.268 2°30.198 9.5 351 18.7 100690 82
2004-08-16 12:42 51°20.276 2°30.211 9.5 2 18.7 100690 82
2004-08-16 12:43 51°20.278 2°30.227 10.8 10 18.6 100700 82
2004-08-16 12:44 51°20.277 2°30.245 10.3 359 18.6 100700 80
2004-08-16 12:45 51°20.286 2°30.261 11.2 346 18.5 100680 79
2004-08-16 12:46 51°20.243 2°30.272 10.8 77 18.5 100670 78
2004-08-16 12:47 51°20.099 2°30.44 11.5 66 18.4 100670 78
2004-08-16 12:48 51°19.897 2°30.67 9.3 74 18.4 100660 80
2004-08-16 12:49 51°19.721 2°30.947 10.9 78 18.4 100670 79
2004-08-16 12:50 51°19.56 2°31.205 12 82 18.3 100680 78
2004-08-16 12:51 51°19.397 2°31.465 10.1 74 18.3 100680 78
2004-08-16 12:52 51°19.237 2°31.719 8.7 80 18.3 100690 79
2004-08-16 12:53 51°19.078 2°31.996 7.8 76 18.3 100670 78
2004-08-16 12:54 51°18.925 2°32.276 10.6 79 18.3 100690 77
2004-08-16 12:55 51°18.777 2°32.544 10.3 67 18.4 100690 77
2004-08-16 12:56 51°18.628 2°32.799 10.8 68 18.4 100690 78
2004-08-16 12:57 51°18.466 2°33.106 9.2 77 18.3 100690 76
2004-08-16 12:59 51°18.302 2°33.413 8.8 72 18.4 100700 77
2004-08-16 13:00 51°18.154 2°33.695 11.6 83 18.4 100700 77
2004-08-16 13:01 51°18.006 2°33.975 8.7 82 18.4 100700 77
2004-08-16 13:02 51°17.853 2°34.264 8.5 79 18.4 100700 78
2004-08-16 13:03 51°17.689 2°34.592 10.8 82 18.4 100690 77
2004-08-16 13:04 51°17.543 2°34.883 9.9 78 18.5 100700 78
2004-08-16 13:05 51°17.387 2°35.167 10.7 80 18.4 100680 76
2004-08-16 13:06 51°17.235 2°35.451 11.3 85 18.5 100700 77
2004-08-16 13:07 51°17.077 2°35.733 11.2 87 18.5 100690 78
2004-08-16 13:08 51°16.928 2°36.012 10.5 89 18.5 100700 77
2004-08-16 13:09 51°16.781 2°36.293 10.5 80 18.4 100700 77
2004-08-16 13:10 51°16.644 2°36.566 7.9 116 18.5 100700 76
2004-08-16 13:11 51°16.607 2°36.738 8.5 92 18.5 100710 77
2004-08-16 13:12 51°16.564 2°36.772 10.5 28 18.5 100700 77
2004-08-16 13:13 51°16.557 2°36.772 10.8 20 18.6 100700 76
2004-08-16 13:14 51°16.561 2°36.78 10.1 14 18.6 100710 75
2004-08-16 13:15 51°16.571 2°36.797 9.1 11 18.7 100710 75
2004-08-16 13:16 51°16.586 2°36.82 9.9 3 18.7 100700 75
2004-08-16 13:17 51°16.603 2°36.847 7.4 359 18.8 100710 76
2004-08-16 13:18 51°16.626 2°36.876 8.6 340 18.8 100700 77
2004-08-16 13:19 51°16.635 2°36.873 11.5 41 18.8 100700 75
2004-08-16 13:20 51°16.529 2°36.917 13 52 18.7 100680 76
2004-08-16 13:21 51°16.335 2°36.958 12.5 49 18.6 100670 76
2004-08-16 13:22 51°16.139 2°37.043 11.5 50 18.5 100670 77
2004-08-16 13:23 51°15.947 2°37.131 12.8 58 18.5 100670 78
2004-08-16 13:24 51°15.738 2°37.218 12.1 56 18.5 100670 78
2004-08-16 13:25 51°15.54 2°37.35 11.4 63 18.5 100670 79
2004-08-16 13:26 51°15.352 2°37.523 9.3 74 18.5 100680 80
2004-08-16 13:27 51°15.169 2°37.741 10 71 18.5 100690 78
2004-08-16 13:28 51°14.985 2°37.945 9.4 78 18.5 100690 79
2004-08-16 13:29 51°14.795 2°38.155 8.6 69 18.6 100690 79
2004-08-16 13:30 51°14.617 2°38.361 8.7 74 18.6 100690 79
2004-08-16 13:31 51°14.434 2°38.567 9.3 69 18.6 100690 79
2004-08-16 13:32 51°14.24 2°38.729 10.9 69 18.6 100680 79
2004-08-16 13:33 51°14.038 2°38.832 11.8 49 18.6 100670 79
2004-08-16 13:34 51°13.79 2°38.79 13.8 47 18.6 100670 79
2004-08-16 13:35 51°13.592 2°38.704 13.5 24 18.7 100670 79
2004-08-16 13:36 51°13.419 2°38.532 13.9 30 18.7 100670 79
2004-08-16 13:37 51°13.231 2°38.348 14.9 29 18.8 100660 79
2004-08-16 13:38 51°13.056 2°38.183 15.1 32 18.8 100660 79
2004-08-16 13:39 51°12.881 2°38.021 13.8 35 18.8 100660 79
2004-08-16 13:40 51°12.703 2°37.854 13 33 18.7 100660 80
2004-08-16 13:41 51°12.53 2°37.692 14.6 34 18.8 100660 81
2004-08-16 13:42 51°12.349 2°37.528 14.4 28 18.8 100660 81
2004-08-16 13:43 51°12.174 2°37.377 15 33 18.8 100650 80
2004-08-16 13:44 51°11.978 2°37.272 14.5 38 18.8 100660 80
2004-08-16 13:45 51°11.781 2°37.169 14 39 18.8 100660 80
2004-08-16 13:46 51°11.586 2°37.065 12.9 34 18.8 100660 80
2004-08-16 13:47 51°11.392 2°36.961 14.2 39 18.9 100660 79
2004-08-16 13:48 51°11.168 2°36.864 13.4 45 18.9 100660 80
2004-08-16 13:49 51°10.972 2°36.786 13.2 47 18.9 100660 80
2004-08-16 13:50 51°10.743 2°36.709 13.3 53 18.9 100670 81
2004-08-16 13:51 51°10.535 2°36.698 12.7 45 19 100670 81
2004-08-16 13:52 51°10.326 2°36.713 11 62 18.9 100660 80
2004-08-16 13:53 51°10.16 2°36.976 5.6 85 19 100690 81
2004-08-16 13:54 51°10.123 2°37.342 2.2 83 19.1 100700 81
2004-08-16 13:56 51°10.116 2°37.742 1.6 116 19.1 100700 80
2004-08-16 13:56 51°10.168 2°38.108 1.6 293 19.2 100700 80
2004-08-16 13:58 51°10.265 2°38.534 1 288 19.3 100700 79
2004-08-16 13:59 51°10.351 2°38.936 0.3 254 19.4 100700 79
2004-08-16 14:00 51°10.426 2°39.323 0.4 243 19.5 100700 79
2004-08-16 14:01 51°10.51 2°39.689 2.2 323 19.6 100700 78
2004-08-16 14:02 51°10.595 2°40.06 1.7 270 19.8 100700 78
2004-08-16 14:03 51°10.678 2°40.433 1.2 284 19.8 100700 77
2004-08-16 14:04 51°10.761 2°40.822 1.2 335 19.8 100700 76
2004-08-16 14:05 51°10.856 2°41.186 2.8 309 19.9 100700 77
2004-08-16 14:06 51°10.955 2°41.535 2.1 296 19.9 100700 76
2004-08-16 14:07 51°11.052 2°41.844 3 241 19.8 100700 76
2004-08-16 14:08 51°11.082 2°42.023 6.1 117 19.7 100690 77
2004-08-16 14:09 51°11.024 2°42.096 8.2 56 19.7 100680 77
2004-08-16 14:10 51°10.992 2°42.085 8.8 23 19.5 100680 77
2004-08-16 14:11 51°10.988 2°42.082 9.1 6 19.5 100690 78
2004-08-16 14:12 51°10.995 2°42.088 7.6 360 19.5 100690 77
2004-08-16 14:13 51°11.004 2°42.103 8.2 350 19.5 100690 78
2004-08-16 14:14 51°11.018 2°42.128 8.5 346 19.6 100680 76
2004-08-16 14:15 51°10.999 2°42.107 8.6 72 19.6 100680 76
2004-08-16 14:16 51°10.96 2°42.249 2.2 240 19.5 100680 77
2004-08-16 14:17 51°11.037 2°42.617 0.3 262 19.6 100690 78
2004-08-16 14:18 51°11.103 2°42.993 0.4 315 19.7 100700 77
2004-08-16 14:19 51°11.158 2°43.371 1.3 64 19.8 100690 77
2004-08-16 14:20 51°11.205 2°43.748 1.1 119 19.9 100690 75
2004-08-16 14:21 51°11.255 2°44.128 0.4 115 19.9 100690 74
2004-08-16 14:22 51°11.323 2°44.497 0.3 153 20 100690 74
2004-08-16 14:23 51°11.394 2°44.868 0.4 230 20.2 100700 74
2004-08-16 14:24 51°11.484 2°45.229 0.9 284 20.4 100700 73
2004-08-16 14:25 51°11.57 2°45.583 1.6 271 20.5 100700 73
2004-08-16 14:26 51°11.664 2°45.946 2.4 280 20.5 100700 73
2004-08-16 14:27 51°11.783 2°46.3 3.2 312 20.5 100700 72
2004-08-16 14:28 51°11.903 2°46.648 3.9 301 20.5 100700 72
2004-08-16 14:29 51°12.028 2°46.962 2.6 282 20.4 100700 74
2004-08-16 14:30 51°12.147 2°47.298 2.9 281 20.5 100700 74
2004-08-16 14:31 51°12.269 2°47.634 2.6 281 20.4 100700 74
2004-08-16 14:32 51°12.406 2°48.005 3.6 291 20.3 100690 74
2004-08-16 14:33 51°12.539 2°48.371 3.3 296 20.3 100700 74
2004-08-16 14:34 51°12.661 2°48.752 3.5 313 20.3 100700 75
2004-08-16 14:35 51°12.774 2°49.101 3.1 287 20.2 100690 75
2004-08-16 14:37 51°12.905 2°49.519 2.5 278 20.1 100700 74
2004-08-16 14:38 51°13.031 2°49.916 3.1 261 20 100690 73
2004-08-16 14:39 51°13.141 2°50.254 3.4 307 20 100700 75
2004-08-16 14:40 51°13.253 2°50.605 2.9 306 20 100700 75
2004-08-16 14:41 51°13.363 2°50.947 3.2 228 20 100690 76
2004-08-16 14:42 51°13.475 2°51.293 3.8 310 20 100690 76
2004-08-16 14:43 51°13.58 2°51.636 3.8 304 20 100690 76
2004-08-16 14:44 51°13.694 2°51.99 2.9 291 20 100690 77
2004-08-16 14:45 51°13.801 2°52.343 3 302 20 100690 77
2004-08-16 14:46 51°13.93 2°52.74 2.9 315 20 100690 76
2004-08-16 14:47 51°14.051 2°53.059 3.1 308 20.1 100690 76
2004-08-16 14:48 51°14.167 2°53.388 3.6 41 20.1 100690 75
2004-08-16 14:49 51°14.285 2°53.731 2.5 299 20.2 100690 75
2004-08-16 14:50 51°14.381 2°54.095 1.9 278 20.3 100690 75
2004-08-16 14:51 51°14.439 2°54.454 0.2 287 20.4 100690 75
2004-08-16 14:52 51°14.428 2°54.813 3.5 90 20.5 100690 73
2004-08-16 14:53 51°14.333 2°55.146 4.8 79 20.4 100680 74